[[{"header":{"parameterUnit":"m.s-1","parameterCategory":2,"la1":30.2992,"la2":30.254,"lo1":-89.0895,"lo2":-89.0443,"dy":0.0025,"dx":0.0025,"nx":19,"ny":19,"refTime":"2026-05-07T09:00:00:Z","depth":"0","parameterNumber":2,"parameterNumberName":"U-component_of_CURRENTS"},"data":[0,0,0,-0.3191,-0.3195,-0.3323,-0.3324,-0.3235,-0.3234,0,0,0,0,0,0,0,0,0,0,0,-0.3117,-0.3117,-0.3191,-0.3195,-0.3323,-0.3324,-0.3236,-0.3234,0,0,0,0,0,0,0,0,0,0,0,-0.3117,-0.3117,-0.3118,-0.3195,-0.3323,-0.3324,-0.3236,-0.3198,0,0,0,0,0,0,0,0,0,0,-0.3104,-0.3097,-0.3117,-0.3118,-0.3196,-0.3323,-0.3324,-0.3199,-0.32,-0.3109,0,-0.3125,0,-0.319,-0.3224,-0.3223,0,0,0,-0.3181,-0.3096,-0.3117,-0.3118,-0.3198,-0.3323,-0.3261,-0.3202,-0.3203,-0.311,-0.3124,-0.3124,-0.3188,-0.3223,-0.3222,-0.2969,-0.2967,0,0,-0.3174,-0.3149,-0.3117,-0.3117,-0.3219,-0.3257,-0.3266,-0.3205,-0.3202,-0.3124,-0.3124,-0.3187,-0.3221,-0.322,-0.297,-0.2968,0,0,0,-0.3163,-0.3144,-0.3172,-0.3118,-0.3169,-0.3262,-0.3271,-0.3206,-0.3211,-0.3124,-0.3186,-0.3221,-0.3219,-0.2972,-0.2969,-0.2937,0,0,0,-0.3158,-0.3139,-0.3168,-0.3156,-0.3172,-0.3231,-0.3272,-0.3215,-0.3212,-0.3186,-0.3221,-0.3217,-0.2974,-0.2971,-0.2942,-0.286,0,0,0,-0.3113,-0.3136,-0.3145,-0.3154,-0.322,-0.3235,-0.3239,-0.3217,-0.3249,-0.3223,-0.3217,-0.2975,-0.2971,-0.2946,-0.2869,-0.2811,0,0,0,-0.3091,-0.311,-0.3143,-0.3172,-0.3218,-0.3232,-0.3241,-0.3266,-0.3249,-0.322,-0.2973,-0.297,-0.2947,-0.2874,-0.2816,-0.2684,-0.265,0,0,-0.3103,-0.3111,-0.3125,-0.3159,-0.3148,-0.3214,-0.3155,-0.3157,-0.3141,-0.2977,-0.2974,-0.294,-0.287,-0.2812,-0.2464,-0.2436,0,0,0,-0.3121,-0.3087,-0.3102,-0.3103,-0.3144,-0.3089,-0.3121,-0.3088,-0.2991,-0.3117,-0.2871,-0.2824,-0.2792,-0.272,-0.2697,-0.2604,-0.2952,-0.2952,-0.2953,-0.3024,-0.3041,-0.2982,-0.2964,-0.2978,-0.2988,-0.2932,-0.2858,-0.2901,-0.2837,-0.2751,-0.2606,-0.2527,-0.2508,-0.2413,-0.2729,-0.2729,-0.2729,-0.2729,-0.2847,-0.2746,-0.2782,-0.272,-0.2721,-0.2673,-0.2651,-0.2682,-0.2557,-0.262,-0.2594,-0.2627,-0.2481,-0.2389,-0.2726,-0.2726,-0.2727,-0.2727,-0.2727,-0.2604,-0.2559,-0.2543,-0.247,-0.2423,-0.2473,-0.2414,-0.2438,-0.2449,-0.2418,-0.2366,-0.2365,-0.2326,-0.2444,-0.2444,-0.2443,-0.2443,-0.2442,-0.2442,-0.2348,-0.2332,-0.226,-0.2227,-0.2222,-0.2232,-0.2283,-0.2279,-0.2247,-0.2237,-0.2237,-0.2212,-0.2518,-0.2578,-0.2432,-0.2434,-0.2435,-0.2436,-0.2437,-0.201,-0.2111,-0.1977,-0.1965,-0.1979,-0.1946,-0.2065,-0.2019,-0.2016,-0.1945,-0.1893,-0.2145,-0.213,-0.2147,-0.2195,-0.1959,-0.1959,-0.1959,-0.1959,-0.1849,-0.1869,-0.1755,-0.1718,-0.1738,-0.18,-0.166,-0.1645,-0.1625,-0.1556,-0.1646,-0.1688,-0.1712,-0.1678,-0.1706,-0.1746,-0.1402,-0.1401,-0.14,-0.1674,-0.1682,-0.1547,-0.1563,-0.1615,-0.1629,-0.1406,-0.1199,-0.1226,-0.1375,-0.1534,-0.1558,-0.1629,-0.1674,-0.1638,-0.1684,-0.1759,0,0]},{"header":{"parameterUnit":"m.s-1","parameterCategory":2,"la1":30.2992,"la2":30.254,"lo1":-89.0895,"lo2":-89.0443,"dy":0.0025,"dx":0.0025,"nx":19,"ny":19,"refTime":"2026-05-07T09:00:00:Z","depth":"0","parameterNumber":3,"parameterNumberName":"V-component_of_CURRENTS"},"data":[0,0,0,-0.0523,-0.052,-0.0333,-0.0332,0.0052,0.0055,0,0,0,0,0,0,0,0,0,0,0,-0.0583,-0.0582,-0.0523,-0.052,-0.0334,-0.0332,0.0051,0.0055,0,0,0,0,0,0,0,0,0,0,0,-0.0583,-0.0582,-0.0582,-0.0519,-0.0334,-0.0332,0.005,-0.0116,0,0,0,0,0,0,0,0,0,0,-0.0311,-0.0405,-0.0583,-0.0582,-0.0519,-0.0334,-0.0332,-0.0125,-0.0105,-0.0006,0,-0.0006,0,0.0016,0.008,0.0081,0,0,0,-0.0475,-0.0422,-0.0378,-0.0582,-0.0518,-0.0335,-0.0405,-0.0115,-0.0093,0.0021,-0.0,0.0013,0.0023,0.0082,0.0084,0.0361,0.0361,0,0,-0.0485,-0.0526,-0.0395,-0.0366,-0.0502,-0.0411,-0.04,-0.0103,-0.0086,0.0001,0.0022,0.0029,0.0085,0.0087,0.036,0.0361,0,0,0,-0.0545,-0.0534,-0.0499,-0.0381,-0.0368,-0.0407,-0.0393,-0.0098,-0.009,0.0025,0.0033,0.0087,0.0091,0.036,0.036,0.0171,0,0,0,-0.0549,-0.0572,-0.0505,-0.0523,-0.0376,-0.0252,-0.0396,-0.011,-0.0077,0.0031,0.0087,0.0095,0.036,0.036,0.0175,0.0067,0,0,0,-0.0585,-0.0575,-0.0567,-0.0527,-0.0468,-0.0258,-0.023,-0.0103,-0.0073,0.0081,0.0096,0.036,0.036,0.0179,0.0076,0.0044,0,0,0,-0.0613,-0.0621,-0.0568,-0.0552,-0.0471,-0.0341,-0.0232,-0.0094,0.0031,0.0089,0.036,0.036,0.018,0.0081,0.0049,0.0217,0.0207,0,0,-0.0642,-0.0625,-0.0612,-0.0561,-0.049,-0.0362,-0.0263,-0.0059,0.0076,0.028,0.0287,0.0174,0.0076,0.0045,0.0252,0.024,0,0,0,-0.0632,-0.0634,-0.0594,-0.0544,-0.0428,-0.0352,-0.015,-0.0073,0.0085,0.0142,0.024,0.0185,0.0171,0.0286,0.0278,0.0477,0.0363,0.0363,0.0363,-0.0734,-0.067,-0.0641,-0.0554,-0.0475,-0.031,-0.0252,-0.0106,0.0063,0.0088,0.008,-0.001,0.0113,0.0109,0.0312,0.0153,0.0152,0.0152,0.0151,-0.078,-0.0759,-0.0696,-0.0651,-0.0563,-0.0473,-0.033,-0.025,-0.0153,-0.0026,-0.0029,0.0141,0.0088,0.031,0.014,0.0142,0.0143,0.0144,0.0145,-0.0828,-0.0812,-0.0791,-0.0746,-0.0715,-0.0591,-0.057,-0.0464,-0.0331,-0.0352,-0.0111,-0.0105,0.0049,-0.0304,-0.0304,-0.0305,-0.0306,-0.0306,-0.0306,-0.0878,-0.0857,-0.0875,-0.0839,-0.0835,-0.0804,-0.07,-0.0633,-0.0444,-0.0301,-0.0297,0.0075,-0.0147,-0.0177,-0.0316,-0.0314,-0.0313,-0.0312,-0.0312,-0.0906,-0.0926,-0.0943,-0.0957,-0.0947,-0.0809,-0.0773,-0.0524,-0.0496,-0.0364,0.0039,-0.024,-0.0156,-0.0142,-0.0167,-0.0297,-0.0297,-0.0297,-0.0297,-0.095,-0.0954,-0.0996,-0.1024,-0.1017,-0.0824,-0.0459,-0.0207,0.0029,0.0169,0.0152,0.0319,0.031,0.043,0.043,0.0422,0.0445,0.0446,0.0447,-0.0979,-0.0986,-0.1019,-0.1041,-0.1029,-0.073,-0.0124,0.0445,0.0552,0.049,0.0383,0.0351,0.0609,0.0578,0.0785,0.0769,0.0763,0,0]}],[{"header":{"parameterUnit":"m.s-1","parameterCategory":2,"la1":30.2992,"la2":30.254,"lo1":-89.0895,"lo2":-89.0443,"dy":0.0025,"dx":0.0025,"nx":19,"ny":19,"refTime":"2026-05-07T09:00:00:Z","depth":"2","parameterNumber":2,"parameterNumberName":"U-component_of_CURRENTS"},"data":[0,0,0,-0.2521,-0.2522,-0.2588,-0.2588,-0.2642,-0.2643,0,0,0,0,0,0,0,0,0,0,0,-0.2509,-0.251,-0.2521,-0.2522,-0.2587,-0.2588,-0.2642,-0.2643,0,0,0,0,0,0,0,0,0,0,0,-0.2509,-0.251,-0.251,-0.2522,-0.2587,-0.2588,-0.2642,-0.2603,0,0,0,0,0,0,0,0,0,0,-0.2544,-0.2519,-0.251,-0.251,-0.2522,-0.2587,-0.2588,-0.2602,-0.2605,-0.26,0,-0.2614,0,-0.2619,-0.2645,-0.2645,0,0,0,-0.2534,-0.2516,-0.2544,-0.251,-0.2523,-0.2587,-0.2561,-0.2604,-0.2608,-0.2605,-0.2615,-0.2617,-0.262,-0.2645,-0.2645,-0.2549,-0.2548,0,0,-0.253,-0.2511,-0.2541,-0.2547,-0.2543,-0.2559,-0.2563,-0.2607,-0.2606,-0.2615,-0.2618,-0.262,-0.2645,-0.2645,-0.2551,-0.2549,0,0,0,-0.2512,-0.2508,-0.2536,-0.2544,-0.2553,-0.2561,-0.2565,-0.2604,-0.2617,-0.2619,-0.2621,-0.2645,-0.2645,-0.2552,-0.255,-0.2471,0,0,0,-0.251,-0.2497,-0.2534,-0.2522,-0.2552,-0.2579,-0.2561,-0.2614,-0.2619,-0.2621,-0.2645,-0.2646,-0.2553,-0.2551,-0.2476,-0.2457,0,0,0,-0.2506,-0.2495,-0.2507,-0.2521,-0.2544,-0.2578,-0.2594,-0.2616,-0.2619,-0.2645,-0.2646,-0.2554,-0.2551,-0.248,-0.2464,-0.2427,0,0,0,-0.2479,-0.2483,-0.2507,-0.2516,-0.2543,-0.2545,-0.2594,-0.261,-0.2629,-0.2645,-0.2553,-0.255,-0.2482,-0.2468,-0.2431,-0.2274,-0.2243,0,0,-0.2466,-0.2481,-0.2489,-0.2512,-0.2493,-0.2536,-0.2486,-0.2545,-0.2573,-0.2543,-0.2541,-0.2474,-0.2464,-0.2428,-0.2102,-0.2076,0,0,0,-0.2474,-0.2452,-0.2461,-0.2457,-0.2484,-0.2453,-0.2489,-0.2475,-0.2454,-0.2567,-0.2435,-0.2431,-0.2411,-0.2323,-0.2302,-0.2536,-0.2536,-0.2537,-0.2537,-0.237,-0.2398,-0.2366,-0.2375,-0.2381,-0.2381,-0.2355,-0.2328,-0.2379,-0.2334,-0.2337,-0.2216,-0.2116,-0.2099,-0.2295,-0.2295,-0.2294,-0.2294,-0.2294,-0.2266,-0.2222,-0.2256,-0.2232,-0.2239,-0.2204,-0.219,-0.2206,-0.2152,-0.2202,-0.2187,-0.2206,-0.2071,-0.2287,-0.2288,-0.2289,-0.229,-0.229,-0.2291,-0.2136,-0.2115,-0.2125,-0.2098,-0.2073,-0.2102,-0.2059,-0.2081,-0.2082,-0.2062,-0.2001,-0.2,-0.2206,-0.2069,-0.2069,-0.2069,-0.2068,-0.2068,-0.2068,-0.199,-0.1996,-0.1959,-0.1961,-0.1961,-0.1971,-0.1997,-0.198,-0.1928,-0.19,-0.1899,-0.2141,-0.2148,-0.2192,-0.2063,-0.2064,-0.2065,-0.2065,-0.2065,-0.1782,-0.1843,-0.1774,-0.1773,-0.1788,-0.1735,-0.1827,-0.174,-0.1733,-0.1658,-0.1797,-0.1805,-0.1825,-0.1841,-0.1876,-0.1674,-0.1674,-0.1674,-0.1674,-0.1658,-0.1679,-0.1597,-0.1576,-0.1578,-0.1609,-0.146,-0.1415,-0.1435,-0.1416,-0.1428,-0.1424,-0.1445,-0.1447,-0.1472,-0.1502,-0.1202,-0.1202,-0.1201,-0.1517,-0.1529,-0.1423,-0.1446,-0.1466,-0.1429,-0.124,-0.1071,-0.1034,-0.1188,-0.1404,-0.1631,-0.1658,-0.1678,-0.1714,-0.1741,-0.1803,0,0]},{"header":{"parameterUnit":"m.s-1","parameterCategory":2,"la1":30.2992,"la2":30.254,"lo1":-89.0895,"lo2":-89.0443,"dy":0.0025,"dx":0.0025,"nx":19,"ny":19,"refTime":"2026-05-07T09:00:00:Z","depth":"2","parameterNumber":3,"parameterNumberName":"V-component_of_CURRENTS"},"data":[0,0,0,-0.0576,-0.0575,-0.0519,-0.0518,-0.0328,-0.0326,0,0,0,0,0,0,0,0,0,0,0,-0.0587,-0.0587,-0.0576,-0.0575,-0.0519,-0.0518,-0.0328,-0.0326,0,0,0,0,0,0,0,0,0,0,0,-0.0587,-0.0587,-0.0587,-0.0575,-0.0519,-0.0518,-0.0329,-0.0395,0,0,0,0,0,0,0,0,0,0,-0.0462,-0.0508,-0.0587,-0.0587,-0.0575,-0.0519,-0.0518,-0.04,-0.0391,-0.0327,0,-0.033,0,-0.0334,-0.0313,-0.0312,0,0,0,-0.0553,-0.0516,-0.0495,-0.0587,-0.0575,-0.0519,-0.0538,-0.0396,-0.0386,-0.0315,-0.0328,-0.0322,-0.0331,-0.0312,-0.0311,-0.0124,-0.0124,0,0,-0.0556,-0.0574,-0.0503,-0.049,-0.0572,-0.054,-0.0537,-0.0391,-0.0386,-0.0327,-0.0318,-0.0328,-0.031,-0.0309,-0.0125,-0.0124,0,0,0,-0.058,-0.0576,-0.0561,-0.0497,-0.0502,-0.0539,-0.0535,-0.0392,-0.0386,-0.0316,-0.0325,-0.0309,-0.0307,-0.0126,-0.0125,-0.0186,0,0,0,-0.0581,-0.0592,-0.0563,-0.0572,-0.0506,-0.0466,-0.0539,-0.0396,-0.0381,-0.0326,-0.0309,-0.0305,-0.0126,-0.0125,-0.0186,-0.0229,0,0,0,-0.0587,-0.0593,-0.0589,-0.0574,-0.056,-0.0469,-0.0455,-0.0393,-0.0386,-0.0312,-0.0304,-0.0127,-0.0125,-0.0185,-0.0227,-0.0204,0,0,0,-0.0602,-0.0616,-0.059,-0.0599,-0.0561,-0.0526,-0.0456,-0.0416,-0.0361,-0.0308,-0.0126,-0.0125,-0.0185,-0.0226,-0.0203,-0.0119,-0.0115,0,0,-0.063,-0.062,-0.0622,-0.0599,-0.0578,-0.0531,-0.0476,-0.0378,-0.031,-0.0163,-0.0159,-0.0186,-0.0227,-0.0203,-0.0044,-0.0042,0,0,0,-0.0637,-0.0635,-0.0626,-0.0606,-0.0571,-0.051,-0.0426,-0.037,-0.025,-0.0275,-0.0142,-0.0165,-0.0149,-0.0095,-0.0093,-0.0119,-0.0119,-0.0119,-0.0119,-0.0693,-0.066,-0.0651,-0.0598,-0.0566,-0.0479,-0.0426,-0.0319,-0.0251,-0.0203,-0.0182,-0.0164,-0.0105,-0.0103,-0.0134,-0.0134,-0.0134,-0.0134,-0.0135,-0.0719,-0.0707,-0.0654,-0.0636,-0.0562,-0.0508,-0.0382,-0.0332,-0.0222,-0.0182,-0.0162,-0.0122,-0.0105,-0.0139,-0.0138,-0.0137,-0.0137,-0.0136,-0.0136,-0.0746,-0.0734,-0.0718,-0.0678,-0.0624,-0.0535,-0.0464,-0.0381,-0.0279,-0.0265,-0.0149,-0.0147,-0.0218,-0.0232,-0.0232,-0.0232,-0.0232,-0.0232,-0.0232,-0.0783,-0.0761,-0.077,-0.0726,-0.071,-0.065,-0.0519,-0.044,-0.0291,-0.0204,-0.0202,-0.0196,-0.0193,-0.0221,-0.0233,-0.0233,-0.0233,-0.0233,-0.0233,-0.0808,-0.0823,-0.0828,-0.0828,-0.0782,-0.0732,-0.0598,-0.0375,-0.0279,-0.0185,-0.0146,-0.0147,-0.0115,-0.0114,-0.0137,-0.0128,-0.0128,-0.0128,-0.0128,-0.0846,-0.0847,-0.0874,-0.0882,-0.0846,-0.0767,-0.0601,-0.0362,-0.0157,-0.0063,-0.0066,-0.0034,-0.0039,-0.0,-0.0002,-0.0023,0.0016,0.0016,0.0016,-0.087,-0.0872,-0.0899,-0.0905,-0.0873,-0.0786,-0.0634,-0.0365,-0.006,0.0017,-0.0093,-0.0108,-0.0067,-0.0072,-0.0016,-0.0018,-0.0052,0,0]}],[{"header":{"parameterUnit":"m.s-1","parameterCategory":2,"la1":30.2992,"la2":30.254,"lo1":-89.0895,"lo2":-89.0443,"dy":0.0025,"dx":0.0025,"nx":19,"ny":19,"refTime":"2026-05-07T09:00:00:Z","depth":"4","parameterNumber":2,"parameterNumberName":"U-component_of_CURRENTS"},"data":[0,0,0,-0.1691,-0.1692,-0.1745,-0.1745,-0.1702,-0.1702,0,0,0,0,0,0,0,0,0,0,0,-0.1682,-0.1682,-0.1691,-0.1692,-0.1745,-0.1745,-0.1702,-0.1702,0,0,0,0,0,0,0,0,0,0,0,-0.1681,-0.1682,-0.1683,-0.1693,-0.1745,-0.1745,-0.1702,-0.1687,0,0,0,0,0,0,0,0,0,0,-0.1649,-0.1643,-0.1682,-0.1683,-0.1693,-0.1745,-0.1745,-0.1688,-0.1688,-0.165,0,-0.1678,0,-0.1687,-0.1697,-0.1697,0,0,0,-0.1682,-0.1643,-0.1675,-0.1683,-0.1694,-0.1745,-0.1718,-0.1689,-0.1689,-0.165,-0.1678,-0.1677,-0.1686,-0.1697,-0.1696,-0.1551,-0.155,0,0,-0.1679,-0.1666,-0.1675,-0.1676,-0.1731,-0.1717,-0.172,-0.169,-0.1687,-0.1678,-0.1676,-0.1686,-0.1696,-0.1696,-0.1552,-0.155,0,0,0,-0.1677,-0.1663,-0.1698,-0.1677,-0.1695,-0.1719,-0.1722,-0.1688,-0.1706,-0.1676,-0.1685,-0.1696,-0.1695,-0.1553,-0.1551,-0.1604,0,0,0,-0.1675,-0.1664,-0.1697,-0.1686,-0.1697,-0.1703,-0.1721,-0.1709,-0.1706,-0.1685,-0.1696,-0.1694,-0.1554,-0.1552,-0.1606,-0.1683,0,0,0,-0.1675,-0.1662,-0.1681,-0.1686,-0.1715,-0.1705,-0.172,-0.1709,-0.1711,-0.1697,-0.1694,-0.1555,-0.1552,-0.1607,-0.1682,-0.1676,0,0,0,-0.1641,-0.1641,-0.1681,-0.1672,-0.1715,-0.1696,-0.172,-0.1714,-0.1703,-0.1695,-0.1554,-0.1551,-0.1607,-0.1681,-0.1676,-0.1456,0,0,0,-0.1612,-0.1637,-0.1628,-0.1665,-0.1646,-0.1687,-0.1645,-0.1663,-0.164,-0.1557,-0.1555,-0.1605,-0.1682,-0.1676,-0.1302,0,0,0,0,-0.1598,-0.1606,-0.1603,-0.161,-0.161,-0.1638,-0.1628,-0.1627,-0.1597,-0.1625,-0.1536,-0.1583,-0.1578,-0.1443,-0.1539,-0.1539,-0.1539,-0.154,-0.154,-0.1545,-0.1555,-0.1552,-0.1573,-0.1569,-0.1582,-0.1607,-0.1592,-0.1548,-0.1536,-0.1573,-0.1541,-0.1391,-0.1482,-0.1482,-0.1482,-0.1482,-0.1483,-0.1483,-0.152,-0.1515,-0.1556,-0.157,-0.1597,-0.1583,-0.1593,-0.1599,-0.1583,-0.1549,-0.154,-0.1442,-0.1486,-0.1485,-0.1485,-0.1485,-0.1484,-0.1484,-0.1484,-0.1491,-0.1486,-0.1538,-0.1569,-0.1614,-0.1628,-0.1643,-0.1664,-0.1653,-0.1669,-0.1466,-0.1574,-0.1632,-0.1626,-0.1627,-0.1627,-0.1627,-0.1627,-0.1628,-0.142,-0.1467,-0.1492,-0.1561,-0.1592,-0.1632,-0.1675,-0.1656,-0.1658,-0.1524,-0.1672,-0.159,-0.1585,-0.1637,-0.1632,-0.1631,-0.1631,-0.163,-0.163,-0.1312,-0.1364,-0.1385,-0.1427,-0.1491,-0.1508,-0.16,-0.1507,-0.1473,-0.1396,-0.1422,-0.1431,-0.1402,-0.1402,-0.1447,-0.1387,-0.1384,-0.1381,0,-0.1223,-0.1254,-0.1261,-0.1289,-0.1299,-0.1404,-0.1287,-0.1287,-0.1298,-0.1261,-0.148,-0.1514,-0.1516,-0.1488,-0.1483,-0.1536,0,0,0,-0.1128,-0.1153,-0.1118,-0.118,-0.1192,-0.1172,-0.1239,-0.1165,-0.1326,-0.1197,-0.1311,-0.133,-0.1489,-0.1645,-0.1623,-0.1617,-0.17,0,0]},{"header":{"parameterUnit":"m.s-1","parameterCategory":2,"la1":30.2992,"la2":30.254,"lo1":-89.0895,"lo2":-89.0443,"dy":0.0025,"dx":0.0025,"nx":19,"ny":19,"refTime":"2026-05-07T09:00:00:Z","depth":"4","parameterNumber":3,"parameterNumberName":"V-component_of_CURRENTS"},"data":[0,0,0,-0.0497,-0.0498,-0.053,-0.053,-0.0549,-0.0549,0,0,0,0,0,0,0,0,0,0,0,-0.0486,-0.0486,-0.0497,-0.0498,-0.053,-0.053,-0.0549,-0.0549,0,0,0,0,0,0,0,0,0,0,0,-0.0486,-0.0486,-0.0486,-0.0498,-0.053,-0.053,-0.0549,-0.053,0,0,0,0,0,0,0,0,0,0,-0.0502,-0.0501,-0.0486,-0.0486,-0.0498,-0.053,-0.053,-0.0529,-0.0531,-0.0528,0,-0.0534,0,-0.0542,-0.055,-0.055,0,0,0,-0.0498,-0.05,-0.0502,-0.0486,-0.0498,-0.053,-0.0515,-0.0531,-0.0533,-0.053,-0.0535,-0.0536,-0.0542,-0.055,-0.055,-0.0533,-0.0533,0,0,-0.0496,-0.0498,-0.05,-0.0503,-0.0509,-0.0514,-0.0516,-0.0532,-0.0538,-0.0535,-0.0536,-0.0542,-0.055,-0.055,-0.0534,-0.0533,0,0,0,-0.0491,-0.0496,-0.0499,-0.0502,-0.051,-0.0515,-0.0518,-0.0538,-0.0537,-0.0537,-0.0543,-0.055,-0.055,-0.0534,-0.0533,-0.0485,0,0,0,-0.049,-0.0493,-0.0498,-0.05,-0.051,-0.0529,-0.0523,-0.0536,-0.0538,-0.0543,-0.055,-0.055,-0.0534,-0.0534,-0.0487,-0.0454,0,0,0,-0.0484,-0.0493,-0.0496,-0.05,-0.0513,-0.0529,-0.0529,-0.0536,-0.0541,-0.055,-0.055,-0.0534,-0.0534,-0.0488,-0.0457,-0.0404,0,0,0,-0.0485,-0.0503,-0.0496,-0.0517,-0.0513,-0.0535,-0.0529,-0.0558,-0.057,-0.055,-0.0534,-0.0534,-0.0489,-0.0459,-0.0406,-0.0443,0,0,0,-0.0508,-0.0506,-0.0517,-0.0512,-0.0524,-0.053,-0.0527,-0.0545,-0.0552,-0.0528,-0.0528,-0.0486,-0.0457,-0.0404,-0.0406,0,0,0,0,-0.0525,-0.0526,-0.0533,-0.0535,-0.0548,-0.052,-0.0545,-0.0526,-0.0502,-0.0555,-0.0487,-0.047,-0.0438,-0.0468,-0.053,-0.0531,-0.0531,-0.0531,-0.0531,-0.0549,-0.0541,-0.0548,-0.0534,-0.0535,-0.052,-0.0485,-0.0457,-0.0492,-0.0464,-0.0432,-0.0358,-0.039,-0.044,-0.044,-0.0439,-0.0439,-0.0439,-0.0439,-0.0565,-0.0561,-0.0534,-0.054,-0.05,-0.049,-0.0413,-0.0404,-0.0329,-0.0374,-0.0345,-0.0417,-0.0434,-0.0435,-0.0436,-0.0436,-0.0437,-0.0437,-0.0437,-0.0576,-0.0569,-0.0571,-0.0555,-0.051,-0.0471,-0.0385,-0.0335,-0.0282,-0.024,-0.0281,-0.0313,-0.0314,-0.0241,-0.024,-0.024,-0.024,-0.0239,-0.0239,-0.059,-0.0583,-0.0599,-0.0574,-0.0561,-0.05,-0.038,-0.0307,-0.0242,-0.0216,-0.0234,-0.0291,-0.0298,-0.0302,-0.0233,-0.0234,-0.0235,-0.0236,-0.0236,-0.06,-0.0619,-0.0633,-0.0638,-0.0595,-0.0537,-0.0429,-0.0268,-0.0184,-0.0124,-0.0192,-0.0196,-0.0209,-0.0217,-0.022,-0.0124,-0.0124,-0.0124,0,-0.0619,-0.0625,-0.0661,-0.0669,-0.0627,-0.0551,-0.0417,-0.0306,-0.0205,-0.0223,-0.0202,-0.0287,-0.0288,-0.0315,-0.0322,-0.0332,0,0,0,-0.063,-0.0637,-0.0668,-0.0684,-0.0644,-0.0483,-0.0374,-0.0323,-0.0234,-0.0136,-0.0129,-0.0128,-0.0221,-0.0216,-0.0245,-0.0253,-0.0261,0,0]}]]